Wind_Speed
6 6 6 6 7 7 8 8 8 9 9 9 9 9 9 9 10 10 9 10 10 10 10 11 11 11 11 11 11 11 11 11 12 12 11 11 11 10 10 11 10 9 9 8 8 8 9 9 10 10 11 11 11 11 11 11 10 11 11 10 8 6 4 4 5 7 10 11 11 13 15 19 18 16 17 21 20 19 17 14 13 16 16 16 16 17 17 17
8 8 9 9 9 10 10 10 10 10 10 10 10 10 10 10 11 11 11 11 11 11 12 12 12 12 12 12 12 11 12 11 12 12 12 11 10 9 8 8 8 8 8 8 9 10 11 11 11 11 12 12 12 12 11 10 10 11 12 10 8 7 6 5 5 7 11 13 13 13 15 17 16 15 16 19 19 18 17 14 12 13 12 13 15 18 19 19
11 11 12 12 12 12 12 12 12 12 12 12 12 12 12 12 12 13 13 13 13 13 13 14 13 13 13 13 13 12 11 11 11 12 11 9 8 8 8 9 9 9 9 10 11 12 12 12 12 11 11 11 11 11 10 9 10 11 12 11 8 8 6 5 6 8 10 13 13 13 14 15 15 15 15 17 19 18 15 13 13 12 9 10 13 16 17 17
14 14 14 14 14 14 14 14 14 14 14 14 14 14 14 14 14 14 14 14 14 14 15 15 14 14 14 13 13 13 12 11 11 10 10 9 9 9 10 10 10 10 9 9 10 11 11 11 10 10 9 9 10 10 10 10 12 12 11 11 10 9 8 6 8 9 10 13 15 15 15 15 15 15 14 16 19 16 12 12 13 11 8 8 11 14 16 15
16 16 16 16 16 16 16 16 16 16 16 16 16 16 16 16 15 15 15 15 15 15 15 15 14 14 14 14 13 13 13 12 10 10 11 12 12 11 11 11 11 10 9 8 9 9 9 10 9 10 10 10 11 11 11 12 14 14 12 12 11 12 11 8 10 12 13 15 16 16 16 17 17 16 14 15 17 16 13 13 13 12 10 10 13 15 15 14
18 18 18 18 17 17 17 17 17 17 17 17 17 17 17 17 16 16 16 15 15 15 16 16 15 15 15 14 14 13 12 11 11 12 13 14 13 12 12 11 11 11 10 9 9 9 10 10 11 12 12 12 13 13 13 13 15 16 15 13 13 14 15 14 15 16 16 17 17 17 18 18 17 16 15 13 13 14 13 14 15 15 13 12 13 13 13 12
19 19 19 19 19 19 19 19 18 18 18 18 18 18 17 17 17 17 16 16 16 16 17 16 16 16 16 16 15 15 12 11 13 13 13 14 13 13 12 12 12 12 13 12 12 12 12 13 13 14 16 15 15 14 13 15 17 18 18 16 15 16 18 18 19 19 18 18 17 17 19 18 16 18 18 12 10 12 12 14 16 18 16 13 11 11 13 14
20 20 20 20 19 19 19 19 19 19 18 18 18 18 18 18 18 18 17 18 17 18 18 17 17 17 17 17 16 16 13 11 14 14 14 14 15 14 13 14 15 15 16 16 15 16 15 15 14 16 17 16 17 16 15 16 17 19 19 18 18 19 20 20 21 20 19 18 17 17 20 17 13 19 20 12 9 12 13 15 17 18 17 15 13 13 15 17
21 21 20 20 20 20 20 19 19 19 19 19 19 18 19 19 19 19 19 19 19 19 19 19 18 18 18 18 18 18 14 13 14 15 16 16 16 17 17 17 18 18 18 18 18 18 17 17 17 17 18 18 19 18 18 18 18 19 19 21 22 21 21 21 20 19 18 18 17 18 19 14 12 19 19 10 11 14 16 17 16 16 17 17 18 17 18 19
21 21 20 20 20 20 20 20 20 20 19 19 19 19 19 19 20 20 20 20 20 20 20 20 20 20 20 20 21 19 15 16 17 17 18 19 19 20 20 20 20 20 19 19 19 18 18 18 18 18 18 19 20 19 19 19 19 20 21 22 22 21 22 21 20 18 15 17 17 17 18 14 14 18 15 11 15 18 17 16 15 17 17 18 19 19 20 20
22 21 21 21 21 21 21 21 21 21 20 20 20 21 21 21 21 21 22 22 22 22 22 23 22 22 23 23 23 22 19 19 20 19 19 20 21 21 21 21 20 20 20 20 20 19 19 19 19 18 18 19 20 19 20 20 20 21 22 23 22 22 22 20 18 16 15 17 14 15 17 15 15 16 15 17 21 20 16 14 15 16 15 16 18 19 20 20
23 23 23 23 23 23 22 22 22 22 22 22 22 22 23 23 23 23 24 24 24 24 24 24 24 24 25 25 24 23 22 22 21 20 20 20 21 21 21 21 20 20 21 21 21 20 20 20 20 19 19 20 20 20 20 21 21 20 22 24 24 24 22 17 16 14 15 17 15 16 16 15 15 16 18 20 22 22 17 13 13 14 15 17 20 21 22 22
25 25 25 25 25 24 24 24 24 23 23 23 24 24 24 25 25 25 25 25 25 25 25 25 25 26 26 26 24 23 24 23 22 22 20 20 20 21 21 21 21 21 21 22 21 21 21 21 21 21 20 21 21 21 21 21 21 21 21 24 24 24 21 16 14 15 16 17 15 15 16 15 15 18 20 21 23 23 17 11 12 15 18 20 22 23 23 24
26 26 26 26 25 25 25 24 24 24 24 25 25 25 26 26 26 26 26 26 26 26 26 26 26 26 27 26 25 24 24 24 23 23 22 22 21 21 21 21 21 21 21 21 21 20 20 21 21 21 21 21 20 21 22 21 21 21 22 22 21 21 21 17 14 16 16 15 13 14 16 17 17 19 20 21 24 22 15 11 13 18 21 23 23 24 26 26
27 27 26 26 26 26 25 25 25 25 25 25 25 25 26 26 26 26 26 26 26 26 26 26 26 27 28 27 26 26 25 24 24 23 22 22 21 20 20 20 21 21 21 21 21 20 20 20 20 19 20 20 19 20 21 21 21 21 22 21 19 20 22 18 15 16 14 13 14 15 17 18 20 22 21 20 20 18 16 15 18 22 24 24 24 26 28 27
27 27 26 26 26 25 25 25 24 24 24 24 25 25 25 26 26 26 26 26 26 26 26 26 26 26 28 26 26 26 24 23 23 22 22 21 21 22 21 21 22 22 22 23 23 22 21 20 19 18 18 18 19 20 20 20 21 21 21 21 20 20 21 18 15 14 15 15 16 17 19 22 24 24 21 17 15 16 18 20 23 26 27 26 25 26 27 26
27 27 26 26 25 25 25 25 25 24 25 25 25 25 26 26 27 27 27 27 27 27 27 27 26 27 28 26 26 26 24 24 23 23 22 22 22 22 21 21 20 21 21 21 21 20 19 18 18 18 17 18 19 18 18 20 21 20 20 21 19 18 18 19 17 14 15 16 17 19 24 27 26 22 17 13 14 18 20 23 25 28 28 25 24 24 24 22
27 27 26 26 25 25 25 25 25 25 26 26 26 26 27 27 28 28 28 28 28 28 28 28 27 28 27 24 23 23 22 22 21 21 21 21 21 21 22 22 21 20 19 18 19 19 19 20 21 20 20 21 21 20 21 21 20 19 18 19 19 17 18 20 19 16 16 19 20 23 27 28 23 19 15 14 17 20 20 23 25 26 26 24 22 21 19 17
28 27 26 26 26 26 26 26 26 26 26 27 27 27 29 29 30 30 30 30 29 29 28 28 27 26 25 23 22 22 22 22 23 24 24 24 25 26 26 25 24 22 20 21 22 23 23 24 24 24 26 26 24 23 23 20 18 18 18 19 19 18 21 22 19 17 19 22 24 25 27 24 19 17 15 15 19 20 21 22 24 23 22 21 20 18 17 17
28 27 26 26 26 26 27 27 27 26 26 27 28 28 29 30 30 31 31 30 30 29 29 29 28 28 27 27 26 25 25 26 27 28 29 29 30 30 29 28 27 26 26 26 26 25 25 24 26 28 27 23 20 18 19 18 17 18 17 17 18 20 22 19 16 16 20 25 25 23 23 20 18 19 18 19 19 20 22 22 22 19 17 18 18 18 19 21
28 27 27 27 27 27 28 28 27 27 27 27 27 28 29 29 29 30 30 30 29 29 29 28 29 29 27 27 26 25 26 28 29 30 31 32 32 31 31 30 30 29 27 26 25 24 23 25 27 24 18 14 15 17 18 17 17 17 16 16 17 19 19 15 13 16 19 21 20 18 20 20 19 20 22 23 21 21 23 21 17 14 13 16 19 21 24 26
28 28 28 28 28 28 28 27 27 27 27 26 27 27 28 28 29 30 31 31 28 27 28 27 28 29 25 24 25 24 26 27 27 28 29 30 31 31 31 30 29 27 25 24 23 22 22 23 19 13 11 14 17 17 17 16 16 16 15 16 17 16 16 13 12 14 16 18 19 19 22 22 21 22 25 25 20 19 21 17 12 12 16 21 24 27 29 28
29 29 29 29 28 28 27 27 26 27 26 26 27 27 27 28 28 28 29 30 27 24 25 25 26 25 21 21 22 21 23 23 23 24 24 27 27 27 28 27 25 23 22 23 22 21 20 15 8 7 11 14 14 14 14 14 14 14 15 16 16 14 15 15 13 13 15 18 20 21 25 26 24 23 22 20 17 18 19 16 14 15 22 28 30 30 29 27
29 29 29 29 28 27 27 27 26 26 26 26 26 26 26 25 25 26 25 28 27 23 22 23 22 22 20 20 20 20 23 23 23 24 24 25 24 24 25 24 23 22 22 21 19 21 19 12 9 9 10 11 11 12 13 14 13 12 13 16 16 13 14 17 16 16 18 19 20 22 24 25 21 14 13 15 14 16 18 19 19 22 28 31 31 29 26 25
29 29 29 29 29 28 27 27 26 26 26 26 26 24 23 23 24 24 23 25 27 24 22 22 21 20 19 19 20 22 24 25 26 25 24 24 24 24 24 22 22 20 19 17 17 19 14 9 10 10 9 10 9 9 11 12 13 12 13 14 14 12 12 15 16 17 19 18 18 18 14 12 9 4 10 16 16 17 20 23 26 29 32 31 28 25 24 24
29 29 30 30 30 29 28 27 27 26 25 25 25 23 22 23 22 22 21 21 23 23 20 20 19 18 17 18 20 22 23 24 25 25 24 23 23 23 23 23 20 16 13 13 14 15 10 9 9 9 8 9 8 9 9 10 12 14 14 13 12 13 13 14 15 15 15 13 15 15 11 12 16 14 18 23 22 21 23 26 29 31 31 28 25 23 22 19
30 30 30 30 31 30 28 27 26 25 25 24 24 22 22 22 20 19 18 14 16 17 15 14 14 13 13 13 15 16 14 15 17 19 20 19 18 18 18 19 16 11 12 12 12 11 9 8 7 7 8 9 10 9 7 8 12 15 15 13 13 15 14 14 15 15 17 19 21 19 17 21 24 21 19 19 21 23 25 27 29 30 28 26 23 21 19 16
31 30 30 31 31 30 27 26 26 25 24 24 23 23 22 21 19 17 11 5 4 5 7 11 12 11 11 11 11 11 10 9 9 10 11 11 11 11 11 13 11 10 13 15 13 9 6 7 7 6 8 9 9 7 7 10 14 16 16 15 17 17 16 17 17 17 20 22 20 18 17 16 16 14 10 13 19 22 24 27 28 28 25 23 21 19 17 15
32 32 31 31 31 30 28 27 26 24 23 23 23 22 21 19 18 13 6 3 3 4 6 10 11 10 11 11 10 10 10 9 7 7 8 8 7 8 8 10 10 11 14 16 15 11 10 10 8 9 11 9 9 8 10 13 14 17 17 18 19 18 20 19 18 20 20 17 18 20 18 13 12 14 13 14 18 19 21 25 26 25 22 20 19 18 17 16
33 33 31 31 31 30 29 28 26 24 22 22 22 20 17 16 16 11 7 6 6 7 10 12 13 13 11 10 10 9 10 10 9 9 9 9 8 7 8 9 10 12 15 17 17 15 16 14 13 14 13 11 11 11 13 14 15 18 19 19 19 19 22 21 21 22 15 12 19 22 19 16 8 7 9 13 14 14 15 18 20 21 21 20 19 18 17 16
36 34 33 33 32 30 29 27 25 22 21 21 21 20 18 16 16 11 6 9 10 8 12 15 16 16 13 11 10 10 12 12 11 11 10 10 10 10 10 10 11 13 16 20 20 18 19 18 17 17 15 13 12 13 15 16 18 19 18 19 18 15 16 16 16 14 6 7 13 10 11 17 14 7 8 10 10 10 8 7 10 15 18 19 20 19 18 17
37 36 35 34 33 30 29 27 24 23 23 23 21 21 20 16 16 14 8 8 9 8 14 16 16 16 14 13 12 11 12 12 12 12 11 12 13 14 14 12 12 13 14 18 20 20 21 21 19 17 15 15 15 16 18 19 20 20 20 19 13 6 5 6 5 4 6 10 11 7 7 14 20 20 16 14 13 11 8 5 6 11 15 19 20 20 19 19
35 35 34 33 32 29 28 27 27 27 26 25 22 23 22 13 12 19 17 13 8 6 11 13 13 14 13 13 13 12 13 13 14 14 14 16 17 16 15 13 14 15 14 15 16 16 18 20 20 19 18 19 20 20 19 19 19 20 21 19 13 4 1 3 4 2 6 10 10 10 8 9 15 19 17 19 21 20 15 10 9 12 15 18 19 19 20 22
32 32 32 30 29 28 28 29 30 29 26 26 25 22 22 15 9 15 20 18 14 9 9 11 11 12 13 14 13 13 13 13 15 17 17 18 19 19 18 16 16 17 17 18 17 16 14 17 20 21 20 20 19 19 18 18 18 20 21 19 18 14 8 5 4 3 4 6 6 8 6 5 9 9 9 12 16 19 17 13 12 14 16 17 19 22 23 24
31 31 31 30 29 29 29 29 30 29 27 29 27 24 26 23 16 15 17 17 17 14 13 14 15 15 16 17 16 16 16 15 16 18 18 19 20 21 21 19 17 17 18 18 16 15 16 19 21 21 21 21 20 20 20 19 19 20 20 20 22 24 20 13 10 10 8 6 7 10 10 11 14 14 14 13 12 13 13 12 13 15 18 20 22 25 25 25
29 30 31 30 30 30 30 31 32 31 30 29 27 29 33 30 21 17 14 14 16 18 18 19 19 20 20 21 22 22 21 19 19 19 20 22 24 27 28 26 24 24 23 22 19 15 16 19 19 16 17 20 20 20 20 19 17 15 17 21 22 23 22 16 12 13 10 6 10 14 14 16 19 21 24 22 20 20 19 19 19 19 21 23 24 26 26 26
29 30 32 32 31 30 31 33 32 31 29 28 30 33 35 31 24 18 14 13 15 18 22 21 19 19 20 21 22 24 22 21 21 22 23 23 23 26 29 28 29 29 28 27 26 23 22 25 26 23 20 22 22 20 20 21 21 18 17 18 18 16 17 15 7 5 4 3 8 13 16 17 15 17 22 21 20 22 21 21 21 21 23 24 25 26 26 26
31 31 32 33 33 33 34 34 31 27 26 29 33 35 32 30 26 21 18 18 17 19 23 24 20 17 17 17 16 16 17 18 18 19 22 22 20 22 24 26 28 29 27 26 25 25 25 26 29 29 25 22 24 22 20 21 23 23 21 19 16 12 12 12 7 3 3 3 4 10 16 20 21 22 24 22 19 20 20 20 20 21 22 24 25 25 25 24
33 34 33 32 33 34 35 35 32 28 28 33 35 34 31 30 27 23 22 22 22 22 24 25 23 21 20 20 18 16 16 18 18 18 19 19 19 21 23 24 26 26 25 25 26 27 25 22 25 27 23 19 20 23 24 23 23 23 22 21 22 18 14 14 13 8 5 3 4 7 9 15 21 20 18 16 13 15 16 17 17 18 21 24 25 24 23 22
35 36 35 35 33 31 30 33 33 32 33 36 37 34 31 30 28 26 24 24 25 25 25 25 25 25 25 25 25 23 23 23 23 23 22 21 22 22 23 23 24 23 22 23 25 26 25 23 24 27 24 19 19 22 24 24 23 24 25 25 26 25 20 17 18 18 13 5 2 3 6 15 23 19 13 12 12 13 13 13 15 17 20 23 24 22 21 20
37 37 36 36 36 32 30 33 36 36 36 36 36 36 34 32 30 26 22 22 24 24 25 25 25 27 27 27 28 27 27 28 28 27 27 29 28 26 25 25 24 23 23 24 24 25 25 24 26 30 29 25 22 21 22 23 22 23 25 27 28 26 22 14 12 19 21 13 8 5 4 17 30 25 18 18 17 13 11 11 13 16 18 21 21 20 20 21
41 42 39 37 38 36 33 34 36 36 38 39 37 36 34 32 31 27 22 22 23 23 24 26 27 29 29 30 31 30 29 29 30 29 30 32 32 30 29 27 26 25 25 25 25 26 26 26 27 30 33 31 24 19 19 20 21 22 23 26 27 24 22 16 10 14 18 15 15 10 5 18 34 32 24 22 20 15 12 13 14 17 19 20 20 20 22 25
36 37 37 36 37 35 32 32 33 35 38 39 36 33 31 30 29 27 25 24 25 26 27 29 30 31 32 33 33 32 31 29 30 32 33 33 33 33 32 31 30 29 28 27 25 24 24 25 25 27 31 33 29 24 21 19 20 21 22 24 25 25 25 24 21 20 16 14 15 8 2 15 29 29 26 25 22 19 16 16 19 20 21 21 21 23 26 30
28 28 29 29 29 28 28 29 30 32 33 32 31 29 29 28 29 29 29 28 29 30 31 32 32 32 33 33 33 33 31 29 29 31 32 33 34 34 33 32 32 32 31 30 27 25 23 22 21 17 16 20 23 20 18 21 24 25 25 26 27 28 28 27 26 22 15 17 20 11 7 18 24 26 30 29 24 20 17 19 23 24 23 23 25 29 34 38
26 25 25 25 25 26 28 28 28 29 29 29 29 29 29 30 31 32 33 33 32 33 33 34 33 33 33 32 31 31 32 32 30 28 29 30 30 31 31 31 31 32 31 30 28 27 26 25 23 18 11 11 15 13 13 18 23 25 27 28 28 30 30 27 23 17 10 13 19 17 17 25 26 26 27 24 19 19 20 22 25 26 28 31 35 38 41 42
24 24 25 25 26 28 30 29 29 30 30 31 32 32 32 33 33 33 34 34 34 34 35 35 34 33 32 31 31 31 33 34 32 32 32 30 29 29 29 30 32 32 32 31 30 29 28 28 29 28 26 25 26 24 20 18 19 21 23 25 26 28 28 25 19 14 12 13 18 24 26 26 28 28 25 22 22 24 27 30 33 36 38 41 42 43 43 42
25 27 28 26 25 27 30 31 32 32 31 31 33 33 33 33 33 33 34 34 34 33 33 34 35 35 34 34 33 33 34 34 33 35 36 35 34 33 32 33 34 34 36 36 34 32 30 30 31 31 32 33 32 30 26 23 24 26 27 30 33 31 30 30 25 20 18 16 20 30 31 27 32 37 35 33 34 35 37 39 40 42 44 44 44 43 41 40
29 29 29 28 27 28 30 31 30 29 30 32 34 35 35 35 35 35 34 34 34 33 33 35 37 38 37 35 33 33 34 34 35 36 36 36 35 35 34 34 32 33 34 33 33 32 30 30 33 32 31 31 30 28 28 28 28 29 32 36 39 39 37 36 34 33 33 29 30 37 37 35 40 45 43 42 42 42 43 43 43 44 44 43 41 39 37 36
31 32 31 31 32 33 34 32 28 26 27 29 33 34 35 38 38 36 35 34 34 35 35 36 38 37 36 35 33 35 35 34 34 35 34 33 32 32 33 33 32 32 32 31 30 28 27 27 28 28 29 29 28 27 28 30 30 33 37 40 42 44 43 40 40 43 43 41 43 46 45 45 48 49 47 46 44 43 42 41 41 40 39 38 36 35 35 34
31 33 32 32 34 35 34 34 32 32 30 30 33 34 34 36 36 35 36 36 35 36 35 36 37 35 34 33 33 35 36 34 34 33 31 30 31 32 32 32 33 33 33 33 31 28 28 25 22 23 24 25 28 30 30 31 31 33 39 44 46 45 44 44 45 44 42 42 44 44 43 47 48 45 43 41 38 37 37 36 36 36 35 35 34 34 34 32
34 34 33 34 35 34 34 34 34 35 34 35 36 36 35 36 35 35 37 37 36 37 35 34 34 31 30 31 33 34 32 31 33 33 32 32 33 33 33 33 32 32 32 32 29 29 30 27 26 25 22 24 29 28 26 27 27 31 40 46 46 45 44 45 44 42 42 42 40 37 40 43 41 36 34 32 31 33 33 33 34 34 34 34 33 32 31 30
36 37 36 36 36 36 36 35 35 36 38 38 38 37 36 36 35 35 37 36 36 37 36 34 31 28 28 30 31 30 27 27 30 31 30 32 31 31 32 33 33 33 33 31 29 29 29 28 27 24 19 22 26 23 23 22 18 25 41 46 43 43 42 41 42 42 41 38 34 33 35 35 31 29 30 30 29 30 32 32 32 32 32 32 31 31 30 30
Wind_Direction
258 261 265 268 273 278 282 286 289 291 292 292 294 294 293 293 292 292 291 291 292 292 293 294 295 295 297 297 297 297 296 298 297 296 297 296 296 295 294 293 291 289 288 291 292 295 300 304 306 306 306 306 305 304 306 309 308 306 302 306 316 311 293 264 260 273 277 275 275 277 282 288 296 306 305 302 308 312 316 326 319 304 303 302 295 288 284 281
263 265 268 272 275 279 281 282 283 284 285 285 286 286 286 287 287 288 288 289 290 290 291 292 293 295 297 298 299 298 298 300 299 300 301 298 297 299 298 295 293 292 291 294 295 297 299 300 303 303 303 303 301 301 306 307 303 301 299 304 313 303 294 290 285 281 283 286 287 287 289 294 304 310 306 305 308 311 322 331 314 305 307 302 292 285 283 283
263 266 269 272 275 277 279 280 280 280 281 281 281 281 281 282 282 284 285 287 289 290 290 291 293 296 298 300 301 302 302 304 304 304 304 302 305 307 303 297 294 293 294 296 294 295 296 296 298 299 297 296 296 299 304 305 300 297 298 305 310 300 301 303 294 289 290 294 298 301 301 304 307 303 304 309 307 313 327 323 309 313 316 304 294 290 291 293
263 266 269 271 273 275 276 277 277 278 278 279 279 279 279 279 280 282 284 286 288 290 290 291 294 297 299 302 303 305 308 309 308 306 306 306 307 305 300 298 297 298 299 298 296 297 296 297 299 298 296 294 296 304 310 306 300 297 300 308 309 301 304 306 296 298 300 300 305 309 308 306 305 300 304 305 304 319 331 312 309 318 317 309 301 300 305 307
263 266 267 270 271 272 274 274 275 276 276 277 277 278 279 280 281 282 284 286 288 290 290 292 295 297 299 301 303 306 311 313 307 305 306 304 304 303 301 301 302 304 304 302 302 302 299 299 302 298 297 299 302 310 312 304 298 298 302 307 306 301 303 308 304 306 307 306 309 312 308 305 303 302 303 299 302 320 324 308 309 313 311 307 303 304 308 311
264 266 267 269 271 272 273 274 275 275 276 276 277 278 280 281 283 284 286 287 289 289 290 293 295 296 297 299 300 302 308 309 301 301 301 300 303 305 305 306 305 305 303 299 298 297 296 297 299 298 297 299 302 308 306 299 295 295 300 303 300 298 302 310 308 309 311 312 314 311 305 304 306 304 299 297 304 314 309 304 308 311 310 306 304 308 310 313
264 265 267 269 270 271 272 273 274 274 275 276 277 279 280 282 283 284 285 285 287 287 288 290 292 293 294 295 295 296 302 302 298 298 296 298 301 302 304 303 301 301 298 296 294 292 292 293 295 293 295 298 300 301 296 292 292 293 298 299 295 295 302 309 308 310 314 313 312 305 300 306 312 304 300 305 308 304 297 299 309 315 317 313 303 302 306 309
262 263 265 267 267 268 269 270 270 271 273 274 276 277 278 279 280 281 282 282 283 283 284 286 287 289 289 290 290 290 296 296 293 294 294 296 296 296 296 295 295 295 294 293 291 291 291 291 290 289 292 296 296 293 289 288 288 290 295 296 295 297 301 305 305 310 313 310 304 297 300 310 307 297 302 312 305 297 296 303 313 317 320 322 314 306 303 300
260 262 263 264 265 266 266 267 268 269 270 272 273 275 276 276 277 278 279 280 281 281 282 282 283 284 284 286 285 286 292 290 287 289 291 291 290 289 289 289 290 289 288 288 287 288 289 288 288 289 291 292 290 289 288 288 285 288 292 293 295 297 299 300 302 309 309 302 297 293 300 306 291 291 303 310 296 298 303 310 320 320 322 325 319 308 299 290
259 260 261 262 262 263 264 265 266 267 268 269 270 272 273 273 274 276 276 277 278 279 279 280 280 281 281 282 281 283 287 284 281 283 284 284 284 284 285 286 286 285 284 284 284 284 284 284 285 286 287 287 287 288 289 288 287 289 290 290 294 295 297 300 305 310 301 296 297 289 294 298 283 289 301 304 300 305 308 314 324 323 322 320 309 297 291 287
258 258 258 258 259 260 261 262 263 264 265 267 268 270 271 272 273 273 274 275 276 277 278 278 279 279 280 279 280 283 283 279 279 279 278 279 280 281 282 282 282 283 283 282 283 283 282 282 282 282 283 284 286 289 289 287 286 289 289 290 292 293 297 305 310 309 298 301 299 280 284 291 284 288 298 302 306 311 313 319 327 324 318 306 296 293 292 288
256 256 256 257 257 258 259 261 262 263 265 267 268 269 270 271 272 273 273 274 275 276 277 277 278 278 279 278 280 283 282 280 280 279 277 277 278 279 279 280 280 279 279 280 280 281 282 281 281 280 279 280 285 286 285 285 284 287 289 290 292 295 300 309 310 304 299 303 295 277 280 284 285 291 297 303 309 315 318 321 326 321 309 296 293 294 291 285
257 257 257 258 258 259 260 262 263 265 266 267 268 269 270 271 271 272 272 273 274 275 276 277 277 278 278 279 281 282 281 282 282 281 280 278 277 278 278 278 277 276 275 275 276 278 278 279 279 278 278 280 282 282 281 282 283 287 288 288 294 298 302 310 308 298 296 297 288 279 281 280 287 293 297 306 310 313 317 319 322 316 302 294 293 290 285 282
257 258 258 260 260 261 262 263 263 264 265 266 267 268 269 270 270 272 273 274 274 275 276 277 278 279 279 280 281 280 281 282 282 281 281 280 279 277 277 276 275 274 274 274 274 273 274 275 274 275 277 278 280 280 280 280 283 288 287 286 294 296 299 306 302 296 294 288 280 281 284 285 291 294 299 308 308 311 313 308 315 309 297 291 288 283 280 281
257 258 258 259 260 260 261 261 262 262 263 264 265 266 268 269 270 272 273 274 275 276 277 277 279 279 280 281 281 280 281 280 280 281 280 279 279 276 274 274 274 274 275 275 274 273 273 272 271 272 273 275 277 276 277 279 283 287 285 287 293 293 296 302 299 295 286 278 284 287 288 289 291 294 301 307 308 311 306 302 310 303 291 286 281 278 281 282
257 257 257 258 258 259 259 260 261 262 264 265 266 268 269 271 272 272 273 274 275 275 276 276 277 277 278 280 280 280 280 279 278 278 278 278 276 275 274 273 273 273 273 273 274 274 273 271 270 269 269 271 272 273 277 280 281 285 284 287 292 294 297 298 296 288 278 284 294 293 289 290 291 293 301 309 311 308 301 304 307 296 287 282 277 277 280 281
257 257 257 257 258 258 259 261 262 264 266 268 269 270 271 272 272 272 272 273 273 273 273 274 274 275 276 278 278 278 277 276 276 276 275 274 272 272 273 273 273 272 271 270 269 271 273 273 271 269 269 270 269 270 271 272 280 288 288 289 291 291 290 290 290 283 278 286 291 289 288 289 292 297 304 315 312 303 302 305 300 290 285 283 280 278 277 279
255 256 256 258 259 260 261 263 264 266 267 268 270 271 272 272 272 271 271 271 271 271 272 272 273 274 275 277 276 275 274 272 271 272 270 269 268 269 271 272 273 271 266 262 264 269 273 274 273 270 270 270 271 273 269 272 288 291 286 287 285 282 279 280 283 284 284 286 285 285 285 287 294 301 307 316 309 301 300 298 290 284 286 288 284 278 276 281
253 255 256 258 260 261 262 263 264 265 267 269 270 271 272 272 272 271 270 270 270 271 272 272 271 272 273 275 273 271 270 270 269 269 268 268 268 268 269 269 269 266 261 262 267 272 273 274 271 269 271 274 279 281 278 282 288 281 276 275 274 274 272 273 278 285 290 290 289 288 288 291 296 299 304 311 305 298 296 291 282 282 288 289 282 276 278 283
252 254 256 257 259 260 261 262 264 266 268 270 272 273 273 273 272 272 271 270 270 271 271 272 272 271 271 272 271 270 270 269 268 268 268 267 266 266 266 265 266 265 264 268 271 274 274 272 269 272 279 284 283 277 275 276 273 269 269 266 265 266 271 278 285 292 295 291 290 290 289 291 295 299 304 306 299 289 289 287 280 281 288 284 274 273 278 284
252 254 255 257 259 261 262 264 265 267 268 270 273 274 274 274 273 273 274 273 273 273 272 272 272 270 270 271 270 269 269 267 267 267 266 265 264 264 265 265 267 267 270 272 274 275 273 272 276 284 288 278 261 253 257 261 261 262 262 262 263 264 274 289 294 294 294 289 288 288 287 289 294 300 301 297 291 278 276 280 275 276 281 277 271 272 279 286
252 254 256 259 260 261 263 264 265 266 267 269 271 273 273 274 274 275 276 275 274 274 274 272 271 271 271 269 267 266 264 265 266 266 264 263 262 264 266 266 268 271 273 272 273 272 272 279 286 281 259 242 238 241 246 251 255 256 257 262 266 272 283 292 292 292 289 287 289 290 290 291 296 302 300 295 286 269 266 267 263 269 282 282 279 279 282 287
252 254 257 258 259 261 262 263 264 265 266 269 270 271 272 273 274 275 276 276 274 270 271 271 271 273 271 265 264 264 262 262 262 261 259 259 260 262 265 267 270 272 269 269 269 264 266 281 285 234 230 231 229 233 239 244 249 252 255 259 268 282 287 285 288 287 283 286 290 293 295 295 301 303 294 288 280 264 256 250 248 263 279 284 284 284 284 288
252 253 255 257 258 260 261 262 262 264 266 268 269 270 270 270 273 275 276 279 278 271 269 272 272 271 269 263 261 259 259 258 254 252 253 257 261 261 264 268 269 268 268 268 265 259 260 264 251 238 233 227 227 233 238 245 251 256 257 259 271 285 283 282 287 285 283 286 288 295 298 297 305 304 276 274 274 262 250 244 248 262 274 281 283 281 283 289
250 252 254 256 258 259 259 261 261 263 265 265 265 266 268 271 272 274 277 281 282 278 273 272 270 267 264 260 256 252 252 254 254 254 254 256 260 263 265 266 263 264 266 260 253 256 254 232 229 230 224 230 236 237 240 252 260 264 263 266 276 282 279 279 282 282 283 284 287 298 306 299 299 272 257 273 275 265 256 251 256 265 273 278 278 277 281 287
250 253 255 257 258 258 258 260 260 261 261 260 262 264 268 271 271 273 279 284 286 286 281 273 267 263 257 251 248 248 250 254 256 258 258 255 255 258 260 261 260 258 251 241 242 247 224 191 210 215 216 228 234 241 249 259 267 266 270 279 279 276 275 274 276 277 277 277 280 289 295 284 279 273 274 277 273 267 262 259 261 265 270 274 273 274 277 277
251 254 256 257 257 257 257 258 258 257 257 258 260 263 265 267 267 272 282 290 290 287 276 258 251 251 248 239 236 241 246 252 254 255 256 253 249 250 250 252 253 240 224 217 223 229 206 200 221 216 214 221 232 254 263 261 268 270 276 285 278 274 273 269 272 272 272 276 276 276 278 277 278 280 277 269 264 264 261 260 261 262 266 269 270 270 269 266
252 253 255 256 257 257 256 255 254 254 255 257 260 262 262 262 264 268 275 289 291 281 247 231 230 236 238 230 230 234 233 241 253 250 241 234 234 234 233 237 232 217 216 216 219 224 224 232 240 232 226 232 248 265 259 252 259 265 271 274 272 274 272 270 273 270 275 281 275 268 268 267 274 276 264 255 254 256 257 259 260 261 263 264 263 261 258 256
252 253 253 255 255 255 255 253 252 251 254 257 260 260 255 253 254 246 229 220 223 214 225 228 222 225 234 235 240 240 231 232 234 220 210 205 209 215 221 228 223 216 219 224 228 233 241 245 248 247 247 258 272 269 259 255 258 261 264 263 264 267 267 268 272 271 277 280 267 266 259 246 270 274 252 247 249 249 257 260 260 259 258 257 253 250 248 245
250 251 251 252 252 252 251 249 248 252 256 255 252 245 235 233 231 214 196 214 220 215 221 221 215 221 231 237 242 239 225 221 214 210 212 216 220 222 227 234 236 232 228 231 237 239 243 246 245 249 259 267 269 267 268 267 265 262 259 259 260 261 261 262 265 269 278 273 266 271 258 236 259 283 230 226 237 246 258 261 260 258 254 250 245 242 242 238
249 248 249 250 249 247 243 244 248 251 247 236 229 224 220 218 212 202 201 221 227 220 208 209 214 221 228 229 232 232 226 224 225 227 230 233 238 242 242 244 245 242 237 239 247 249 247 247 247 254 259 256 259 267 272 273 269 263 257 258 259 260 263 262 262 260 252 260 269 273 243 225 227 238 220 220 229 236 248 258 265 263 254 246 242 239 238 234
247 246 247 247 245 241 238 241 244 239 226 217 215 213 210 208 209 208 194 197 224 222 206 208 215 220 227 230 233 235 232 232 235 238 243 248 253 255 255 255 249 245 245 247 254 259 257 256 256 255 250 248 256 263 266 269 267 261 254 248 245 260 284 261 247 230 224 254 263 248 220 220 233 249 253 247 238 233 248 264 258 258 252 244 240 238 237 235
245 244 245 244 243 241 241 242 240 231 222 215 210 203 200 202 217 214 200 191 204 201 199 207 212 218 229 237 239 239 237 241 244 246 251 255 259 258 254 252 244 243 250 254 257 260 264 265 261 255 253 257 261 261 264 269 266 261 255 242 225 201 89 248 249 264 258 261 255 238 233 232 244 256 257 251 247 248 259 262 246 245 244 241 243 243 242 239
244 243 243 244 244 243 242 242 236 227 220 214 207 201 202 208 220 211 204 208 214 206 201 205 207 216 225 232 235 236 240 248 250 252 256 255 257 258 253 251 248 248 255 258 257 255 258 265 262 259 263 265 265 266 272 275 268 263 260 249 236 228 220 229 233 216 251 273 250 221 216 229 239 246 249 249 250 253 255 248 238 242 242 245 250 249 243 237
245 245 245 245 246 246 243 239 231 223 219 219 215 210 211 215 218 215 211 211 214 219 223 221 223 227 227 230 233 236 242 248 250 253 257 256 258 260 259 261 261 258 254 251 254 255 254 262 267 263 263 266 268 271 274 270 261 256 250 241 240 242 240 243 255 257 264 291 265 234 230 246 251 255 256 255 256 254 248 243 242 248 251 252 250 245 239 234
249 247 246 246 244 243 241 234 226 220 217 216 212 213 219 223 224 224 221 212 210 219 226 226 228 231 232 234 235 237 240 245 247 250 254 258 262 263 263 267 269 267 263 258 258 259 256 262 267 262 260 267 271 272 266 256 248 245 238 235 241 246 244 244 261 268 264 270 263 250 246 254 261 267 265 261 260 258 255 258 259 257 255 251 245 239 234 231
252 251 247 245 241 234 227 221 214 211 211 211 213 219 226 229 228 227 227 225 219 219 225 228 229 232 235 237 238 239 240 244 247 249 252 257 262 262 263 267 269 269 270 267 262 259 258 263 267 265 266 270 271 268 255 244 242 239 238 243 246 245 242 240 248 272 256 251 261 256 256 258 257 263 266 262 261 263 260 256 255 252 250 246 240 235 230 229
245 243 236 233 231 224 217 214 211 209 210 213 218 224 231 233 232 232 232 236 234 226 225 227 228 231 234 235 236 235 236 241 244 247 252 254 256 261 264 266 268 268 266 261 255 252 256 264 270 270 269 267 263 256 244 236 237 238 241 245 243 237 234 227 219 239 251 245 268 263 264 265 257 258 268 272 273 272 263 253 250 250 249 244 236 230 227 226
235 228 219 214 216 214 210 211 213 210 210 215 219 224 232 238 239 238 236 237 236 229 228 229 231 234 237 240 243 242 243 245 245 246 251 251 251 259 264 264 265 264 259 252 247 247 251 259 268 271 269 261 248 240 235 233 234 236 238 239 240 242 239 230 228 234 236 232 264 267 264 267 266 267 274 277 275 270 265 262 260 254 246 238 230 226 225 228
229 220 211 207 208 207 203 203 201 200 208 220 224 226 234 241 243 241 237 237 237 236 238 240 240 242 245 248 252 252 251 251 250 247 248 248 251 257 261 259 258 257 254 250 247 249 249 248 256 265 266 255 239 236 239 240 238 238 240 239 241 243 242 243 244 241 239 231 228 249 260 266 270 275 276 273 275 275 276 277 267 251 237 228 223 224 229 239
231 224 216 211 209 203 198 196 195 196 205 219 226 229 234 240 245 244 239 237 239 241 244 247 248 250 252 253 254 254 253 253 252 249 248 250 252 254 257 258 258 257 256 253 250 250 248 244 248 256 258 254 247 245 246 245 241 240 241 242 244 244 241 243 250 244 241 235 228 232 257 265 267 272 278 280 283 283 279 274 261 243 226 221 223 231 243 254
230 226 223 220 217 211 204 200 198 200 205 213 220 227 235 242 248 250 246 241 241 243 246 249 251 253 254 255 255 255 253 252 252 249 248 251 252 253 256 258 259 260 259 257 253 250 248 244 244 248 253 255 254 248 243 241 239 236 236 239 241 242 238 233 239 249 243 236 241 247 253 262 265 269 276 280 281 281 276 263 245 228 220 223 234 248 260 270
227 224 222 221 220 219 217 214 212 213 215 218 223 231 239 247 251 252 250 246 247 248 248 250 251 252 254 256 256 255 253 251 251 250 250 251 252 252 254 255 258 260 259 256 252 247 243 240 240 245 252 254 253 250 242 237 236 235 234 236 237 239 242 242 245 252 250 243 245 245 239 258 262 266 273 277 278 277 268 247 230 224 228 238 251 265 278 286
225 224 223 223 225 226 228 228 228 229 230 232 236 241 244 248 252 253 253 253 253 254 254 255 256 256 257 256 254 253 251 250 252 252 251 250 250 251 253 254 256 257 256 253 250 245 241 237 235 240 253 256 255 254 245 240 242 243 244 244 243 243 247 249 251 250 249 250 249 245 250 257 261 267 271 273 275 271 253 233 227 229 238 254 270 283 291 295
225 224 223 225 230 233 234 235 237 240 241 244 248 251 252 253 253 254 256 256 256 256 257 258 259 259 260 258 254 252 249 248 250 252 251 250 249 251 252 251 252 252 252 250 247 245 244 241 235 231 234 246 250 250 247 247 248 250 253 254 252 252 252 250 250 244 236 246 245 239 249 259 264 269 269 266 262 256 247 244 248 252 261 275 287 293 295 295
237 233 232 230 232 238 241 242 242 244 245 248 251 254 254 253 254 255 255 256 257 256 257 258 260 259 257 255 253 251 250 249 248 250 251 251 250 250 249 248 249 249 248 249 249 249 248 245 242 241 240 245 253 258 259 257 252 252 256 256 256 259 256 249 246 241 242 251 246 243 251 261 263 263 263 262 262 265 268 271 275 277 280 286 292 295 295 294
244 242 242 238 236 242 245 244 243 244 245 246 248 250 252 252 255 256 256 257 259 258 257 257 258 256 253 252 250 251 252 250 248 250 252 254 254 254 253 253 251 251 252 254 256 255 252 250 250 250 250 253 258 261 261 261 257 255 257 258 259 260 255 251 252 254 255 256 252 252 256 261 261 262 265 269 271 274 277 278 280 282 284 287 291 291 291 291
243 244 245 242 240 244 246 246 249 249 247 247 247 250 253 254 254 255 257 259 259 257 254 253 255 255 254 252 250 251 253 252 249 251 254 255 255 255 256 255 254 253 253 254 255 255 253 253 254 255 256 257 257 257 258 259 260 260 260 261 263 261 256 255 258 261 261 261 261 263 264 265 265 266 268 271 273 275 278 280 281 282 283 285 286 287 287 287
241 242 242 240 241 245 247 250 252 249 248 248 248 250 252 253 254 256 257 257 256 256 253 251 254 256 254 252 250 250 251 250 249 252 253 253 253 253 253 253 253 253 252 252 252 251 249 250 253 254 255 256 256 256 260 261 262 263 264 265 266 265 263 262 262 262 262 262 264 267 269 268 268 269 270 273 277 280 281 281 279 279 280 281 282 283 284 286
243 243 243 242 243 246 247 248 248 247 248 247 247 250 251 252 255 257 254 253 254 256 255 253 256 257 254 253 251 250 252 252 252 254 253 251 252 253 254 254 254 254 254 253 252 250 249 251 254 257 259 261 262 262 264 264 264 265 266 266 265 265 264 264 264 264 262 263 265 266 267 268 269 273 276 278 278 279 278 277 277 279 280 281 282 284 285 288
248 247 246 246 247 247 247 247 247 248 248 246 247 252 253 254 258 258 254 254 255 256 255 256 258 257 254 252 250 251 254 254 253 254 253 253 253 254 255 256 256 255 255 255 254 252 253 254 258 262 264 265 265 265 264 264 264 264 263 263 262 262 263 264 266 267 267 268 270 267 265 270 275 278 280 278 275 276 278 279 279 280 280 282 284 286 288 288
252 251 249 248 249 248 248 249 248 247 249 250 253 257 258 260 263 259 254 254 254 253 253 253 254 253 251 251 252 254 254 251 251 252 253 255 255 255 255 254 253 254 254 254 255 256 256 256 257 258 257 260 264 264 263 267 271 265 261 262 264 265 267 269 270 272 272 272 271 268 270 277 282 280 279 279 278 279 279 278 278 279 281 283 284 286 287 286
Height
3186 3186 3186 3186 3186 3186 3186 3187 3187 3186 3186 3187 3187 3187 3187 3187 3187 3187 3187 3187 3187 3187 3187 3187 3187 3187 3187 3187 3187 3187 3186 3186 3186 3185 3185 3185 3185 3185 3185 3184 3184 3184 3184 3184 3184 3183 3183 3183 3183 3183 3183 3183 3182 3182 3182 3182 3181 3181 3180 3181 3181 3181 3181 3181 3181 3180 3180 3179 3179 3179 3178 3177 3176 3177 3176 3174 3173 3173 3173 3173 3173 3171 3170 3170 3169 3167 3167 3167
3184 3185 3185 3185 3185 3185 3185 3185 3185 3185 3185 3185 3185 3185 3185 3185 3185 3185 3185 3186 3186 3186 3185 3185 3185 3185 3185 3185 3185 3185 3185 3185 3184 3184 3184 3184 3184 3183 3183 3183 3183 3183 3182 3182 3182 3182 3182 3182 3182 3182 3181 3181 3181 3181 3181 3181 3180 3180 3179 3179 3180 3180 3179 3180 3180 3179 3178 3177 3177 3177 3177 3176 3175 3175 3174 3172 3171 3171 3171 3171 3171 3170 3169 3168 3167 3165 3165 3165
3183 3183 3183 3184 3184 3184 3184 3184 3184 3184 3184 3184 3184 3184 3184 3184 3184 3184 3184 3184 3184 3184 3184 3184 3184 3184 3184 3184 3184 3184 3184 3183 3183 3182 3182 3182 3182 3182 3182 3182 3182 3182 3181 3181 3181 3180 3180 3180 3180 3180 3180 3180 3180 3180 3180 3180 3179 3178 3178 3178 3178 3178 3178 3178 3178 3178 3177 3176 3175 3175 3175 3174 3174 3173 3172 3171 3169 3169 3169 3169 3168 3168 3168 3167 3165 3164 3163 3163
3182 3182 3182 3182 3182 3183 3183 3183 3183 3183 3183 3183 3182 3183 3183 3182 3183 3183 3183 3183 3182 3182 3182 3182 3182 3182 3182 3182 3182 3182 3182 3182 3181 3181 3181 3181 3181 3181 3181 3180 3180 3180 3180 3180 3179 3179 3179 3179 3179 3179 3179 3179 3179 3179 3179 3178 3177 3177 3177 3177 3177 3177 3177 3177 3176 3176 3176 3174 3174 3174 3173 3172 3172 3171 3171 3170 3167 3167 3168 3167 3166 3166 3166 3165 3164 3162 3162 3162
3180 3180 3181 3181 3181 3181 3181 3181 3181 3181 3181 3181 3181 3181 3181 3181 3181 3181 3181 3181 3181 3181 3180 3180 3180 3180 3180 3180 3180 3180 3180 3180 3180 3180 3179 3179 3179 3180 3179 3179 3179 3178 3178 3178 3178 3177 3177 3177 3177 3177 3178 3178 3177 3177 3177 3176 3175 3175 3175 3176 3175 3175 3174 3175 3175 3174 3173 3173 3172 3171 3170 3170 3169 3169 3169 3168 3166 3166 3166 3164 3164 3164 3164 3163 3162 3162 3161 3160
3178 3178 3178 3179 3179 3179 3179 3179 3179 3179 3179 3179 3179 3179 3179 3179 3179 3179 3179 3179 3179 3179 3178 3178 3178 3179 3179 3179 3179 3179 3179 3179 3179 3178 3178 3178 3178 3178 3178 3177 3177 3177 3177 3177 3176 3176 3176 3176 3176 3175 3175 3176 3175 3175 3175 3174 3173 3173 3173 3174 3173 3172 3172 3172 3172 3171 3171 3170 3170 3169 3168 3167 3167 3166 3166 3166 3165 3165 3164 3163 3162 3162 3162 3162 3161 3160 3159 3158
3176 3176 3176 3177 3177 3177 3177 3177 3177 3177 3177 3177 3177 3177 3177 3177 3177 3177 3177 3177 3177 3177 3177 3177 3177 3177 3177 3177 3177 3177 3178 3178 3177 3177 3177 3176 3176 3176 3176 3176 3176 3175 3175 3175 3175 3175 3175 3174 3174 3174 3173 3174 3174 3174 3173 3172 3171 3170 3170 3171 3171 3170 3169 3169 3169 3168 3169 3168 3168 3167 3165 3165 3165 3163 3163 3164 3164 3163 3162 3162 3161 3159 3159 3159 3159 3158 3156 3155
3173 3174 3174 3174 3175 3175 3175 3175 3175 3175 3175 3175 3175 3176 3176 3176 3176 3176 3176 3176 3175 3175 3175 3175 3175 3175 3175 3175 3175 3176 3177 3177 3176 3175 3175 3175 3175 3174 3174 3174 3174 3174 3173 3173 3173 3173 3173 3173 3173 3172 3172 3172 3171 3171 3171 3171 3170 3169 3168 3168 3168 3168 3167 3167 3166 3166 3166 3165 3165 3164 3163 3163 3163 3161 3160 3161 3162 3161 3161 3160 3159 3158 3157 3157 3156 3155 3153 3151
3171 3171 3171 3172 3172 3172 3173 3173 3173 3173 3173 3173 3173 3174 3174 3174 3174 3174 3174 3174 3174 3173 3173 3174 3174 3174 3173 3173 3173 3174 3175 3175 3174 3174 3173 3173 3173 3173 3173 3173 3172 3172 3171 3171 3171 3171 3171 3171 3171 3171 3170 3170 3169 3169 3169 3169 3168 3167 3167 3166 3165 3165 3165 3165 3165 3165 3164 3163 3162 3161 3160 3161 3161 3159 3159 3159 3159 3159 3159 3158 3157 3156 3155 3154 3153 3151 3148 3147
3168 3169 3169 3169 3170 3170 3170 3171 3171 3171 3171 3171 3171 3171 3171 3171 3172 3172 3172 3172 3171 3171 3171 3172 3172 3172 3171 3171 3171 3171 3173 3173 3173 3172 3172 3171 3171 3171 3171 3171 3170 3170 3169 3169 3169 3169 3169 3169 3169 3169 3168 3168 3167 3167 3167 3166 3166 3165 3165 3164 3164 3163 3163 3163 3163 3163 3162 3161 3160 3158 3158 3159 3158 3157 3158 3157 3157 3156 3156 3156 3155 3153 3152 3151 3148 3146 3145 3144
3165 3166 3166 3167 3167 3167 3168 3168 3169 3169 3169 3169 3169 3169 3169 3169 3169 3169 3169 3169 3169 3169 3169 3169 3169 3169 3169 3169 3168 3169 3170 3170 3170 3170 3170 3169 3169 3169 3169 3168 3168 3168 3167 3166 3166 3167 3167 3167 3167 3167 3166 3166 3165 3165 3164 3164 3163 3163 3162 3161 3162 3161 3161 3162 3161 3160 3159 3159 3158 3156 3156 3157 3156 3156 3156 3155 3154 3154 3154 3153 3152 3151 3149 3147 3144 3142 3142 3142
3163 3163 3164 3164 3165 3165 3166 3166 3166 3166 3167 3167 3167 3167 3166 3166 3166 3167 3167 3166 3166 3166 3166 3167 3167 3167 3166 3166 3166 3166 3167 3167 3167 3167 3167 3167 3167 3166 3166 3166 3166 3166 3165 3164 3164 3164 3164 3164 3164 3164 3164 3163 3163 3163 3162 3161 3161 3161 3160 3158 3159 3159 3159 3160 3159 3158 3157 3157 3156 3154 3154 3155 3155 3154 3154 3153 3151 3150 3150 3150 3150 3148 3145 3142 3140 3139 3139 3138
3160 3161 3161 3162 3162 3163 3163 3163 3164 3164 3164 3164 3164 3164 3164 3164 3164 3164 3164 3164 3164 3164 3164 3164 3164 3164 3163 3164 3164 3164 3164 3164 3164 3164 3164 3164 3164 3164 3163 3163 3163 3163 3162 3162 3162 3162 3162 3162 3161 3161 3161 3161 3161 3161 3160 3159 3159 3159 3158 3156 3157 3156 3157 3158 3157 3156 3155 3154 3154 3152 3151 3151 3153 3152 3151 3150 3149 3147 3147 3147 3147 3144 3141 3138 3137 3136 3135 3134
3158 3158 3158 3159 3159 3160 3160 3161 3161 3161 3161 3162 3162 3161 3161 3161 3161 3161 3161 3161 3161 3161 3161 3161 3161 3160 3160 3161 3161 3161 3161 3161 3161 3161 3161 3161 3161 3161 3161 3161 3160 3160 3159 3159 3159 3160 3160 3159 3159 3159 3159 3159 3159 3158 3157 3157 3157 3157 3156 3155 3155 3154 3154 3156 3156 3154 3153 3152 3151 3150 3148 3148 3149 3149 3149 3148 3146 3145 3145 3145 3144 3141 3137 3135 3135 3133 3132 3131
3155 3155 3156 3156 3157 3157 3158 3158 3158 3158 3159 3159 3159 3159 3158 3158 3158 3158 3158 3158 3158 3158 3158 3158 3158 3157 3157 3158 3158 3158 3158 3158 3158 3158 3158 3158 3158 3158 3158 3158 3158 3157 3157 3157 3156 3157 3157 3157 3157 3157 3157 3156 3157 3156 3155 3155 3155 3155 3153 3152 3153 3151 3151 3153 3154 3152 3150 3149 3149 3148 3146 3145 3146 3146 3146 3146 3145 3144 3142 3142 3141 3138 3135 3133 3132 3130 3128 3128
3152 3152 3153 3153 3154 3155 3155 3155 3155 3156 3156 3156 3156 3156 3155 3155 3155 3155 3155 3155 3155 3155 3155 3155 3155 3155 3154 3155 3155 3155 3155 3155 3155 3155 3155 3155 3155 3155 3155 3155 3155 3155 3155 3154 3154 3154 3154 3154 3154 3154 3154 3154 3154 3154 3153 3153 3153 3153 3151 3150 3150 3149 3148 3149 3151 3150 3148 3147 3146 3146 3144 3142 3143 3143 3144 3144 3143 3141 3139 3139 3138 3134 3132 3131 3130 3128 3127 3127
3149 3149 3150 3150 3151 3151 3152 3152 3152 3153 3153 3153 3153 3153 3152 3152 3152 3152 3152 3152 3152 3152 3152 3152 3152 3152 3151 3152 3152 3152 3152 3152 3152 3152 3152 3152 3152 3151 3152 3152 3152 3152 3152 3152 3152 3152 3151 3151 3152 3152 3152 3152 3152 3152 3152 3151 3150 3151 3149 3148 3148 3147 3146 3146 3147 3147 3146 3145 3145 3143 3141 3140 3141 3141 3141 3142 3141 3139 3137 3136 3134 3130 3129 3128 3127 3127 3126 3126
3146 3146 3147 3147 3148 3148 3148 3149 3149 3150 3150 3150 3150 3150 3149 3149 3149 3148 3148 3149 3149 3149 3149 3149 3149 3149 3148 3149 3150 3150 3150 3150 3150 3150 3150 3149 3149 3149 3148 3148 3149 3149 3150 3150 3149 3150 3149 3149 3149 3149 3150 3149 3149 3150 3149 3147 3148 3148 3147 3146 3145 3144 3144 3143 3143 3144 3144 3143 3142 3141 3139 3138 3139 3139 3139 3140 3138 3136 3135 3133 3130 3128 3127 3126 3125 3125 3125 3125
3142 3143 3143 3144 3144 3145 3145 3145 3146 3146 3146 3146 3147 3147 3146 3146 3145 3145 3145 3145 3145 3146 3145 3145 3146 3146 3145 3147 3147 3147 3147 3147 3147 3147 3147 3147 3146 3146 3145 3145 3146 3146 3147 3147 3147 3147 3147 3147 3146 3146 3146 3147 3147 3146 3145 3145 3145 3145 3144 3143 3142 3141 3141 3140 3141 3142 3141 3140 3139 3138 3137 3136 3137 3137 3137 3137 3134 3133 3131 3130 3128 3126 3125 3124 3124 3124 3124 3124
3139 3140 3140 3140 3141 3141 3142 3142 3143 3143 3143 3143 3143 3143 3143 3142 3142 3141 3141 3141 3142 3142 3142 3142 3142 3142 3143 3143 3143 3144 3144 3144 3144 3144 3143 3143 3143 3142 3142 3142 3143 3143 3144 3144 3144 3143 3144 3143 3142 3142 3144 3144 3144 3143 3142 3142 3142 3141 3141 3141 3140 3139 3137 3138 3139 3139 3139 3137 3136 3135 3134 3134 3135 3134 3135 3134 3132 3130 3128 3127 3126 3125 3124 3123 3123 3123 3122 3121
3136 3137 3137 3137 3138 3138 3138 3139 3139 3140 3140 3139 3139 3139 3139 3139 3138 3137 3137 3137 3138 3139 3138 3138 3138 3138 3140 3140 3139 3141 3140 3140 3140 3140 3139 3139 3139 3138 3138 3138 3139 3140 3141 3141 3140 3140 3140 3139 3138 3140 3141 3141 3140 3140 3139 3139 3139 3139 3139 3138 3138 3136 3135 3136 3137 3137 3136 3135 3134 3134 3132 3132 3133 3133 3131 3130 3129 3127 3125 3125 3124 3123 3122 3122 3122 3121 3120 3119
3133 3133 3134 3134 3134 3134 3135 3135 3136 3136 3136 3136 3136 3136 3135 3135 3134 3134 3133 3133 3135 3136 3134 3135 3133 3133 3136 3136 3135 3137 3136 3135 3136 3136 3136 3135 3134 3135 3134 3134 3136 3137 3137 3137 3137 3137 3137 3135 3135 3137 3137 3137 3137 3137 3137 3137 3137 3137 3137 3136 3135 3134 3134 3135 3135 3135 3135 3133 3132 3131 3130 3129 3131 3130 3128 3125 3125 3125 3123 3123 3122 3121 3120 3120 3119 3119 3118 3117
3129 3130 3130 3130 3130 3131 3131 3132 3132 3133 3133 3133 3133 3133 3132 3132 3131 3131 3130 3129 3131 3133 3131 3131 3130 3130 3132 3132 3132 3133 3131 3132 3132 3132 3132 3131 3131 3132 3131 3131 3133 3134 3134 3133 3133 3134 3134 3133 3133 3133 3133 3134 3134 3135 3135 3135 3135 3135 3135 3134 3133 3133 3133 3133 3133 3134 3133 3131 3130 3128 3126 3126 3128 3127 3123 3122 3122 3122 3122 3121 3120 3119 3118 3117 3117 3116 3115 3115
3126 3126 3126 3126 3127 3128 3128 3128 3129 3129 3130 3130 3129 3130 3129 3129 3129 3128 3128 3126 3126 3129 3129 3127 3127 3127 3128 3128 3128 3129 3127 3128 3128 3128 3128 3128 3128 3129 3128 3129 3130 3130 3130 3130 3130 3130 3130 3131 3131 3131 3132 3132 3133 3133 3133 3133 3133 3133 3133 3132 3131 3132 3132 3131 3131 3131 3130 3129 3128 3126 3123 3121 3124 3124 3121 3120 3121 3121 3121 3119 3118 3118 3117 3116 3115 3114 3114 3114
3122 3123 3123 3123 3123 3124 3125 3125 3125 3126 3127 3126 3126 3127 3127 3127 3127 3126 3126 3124 3121 3124 3126 3124 3124 3123 3124 3124 3124 3124 3124 3123 3124 3125 3125 3126 3126 3126 3126 3126 3127 3127 3128 3128 3127 3127 3127 3129 3129 3129 3130 3130 3131 3131 3131 3131 3131 3131 3131 3130 3130 3130 3130 3129 3129 3129 3127 3127 3126 3126 3123 3118 3119 3122 3120 3118 3119 3120 3119 3118 3117 3116 3114 3114 3114 3113 3113 3113
3119 3119 3119 3119 3120 3121 3122 3121 3122 3123 3123 3123 3123 3124 3124 3124 3124 3124 3124 3122 3118 3119 3121 3120 3120 3120 3120 3121 3120 3121 3121 3121 3121 3121 3122 3123 3123 3123 3123 3123 3124 3125 3126 3125 3125 3125 3125 3126 3127 3127 3128 3128 3129 3129 3129 3129 3129 3129 3128 3128 3129 3128 3128 3128 3128 3127 3125 3124 3123 3125 3125 3118 3113 3118 3118 3116 3116 3116 3116 3115 3114 3114 3112 3112 3112 3112 3112 3112
3115 3116 3115 3116 3116 3117 3118 3118 3118 3119 3120 3120 3120 3121 3122 3121 3122 3122 3123 3122 3116 3115 3117 3116 3116 3116 3116 3117 3117 3118 3119 3118 3118 3118 3119 3120 3120 3121 3121 3121 3122 3123 3123 3123 3124 3123 3124 3125 3125 3126 3127 3127 3127 3128 3128 3128 3128 3127 3127 3128 3127 3127 3127 3126 3126 3125 3123 3122 3121 3122 3125 3118 3109 3111 3114 3113 3113 3112 3111 3111 3111 3111 3111 3111 3111 3111 3110 3110
3111 3111 3111 3112 3112 3114 3114 3114 3115 3116 3116 3116 3117 3118 3118 3119 3120 3120 3123 3122 3114 3111 3113 3113 3114 3114 3114 3115 3116 3116 3117 3116 3117 3116 3117 3118 3118 3119 3119 3119 3121 3121 3121 3121 3121 3122 3122 3123 3123 3124 3125 3125 3126 3127 3127 3127 3126 3125 3126 3126 3126 3125 3125 3124 3124 3123 3122 3120 3117 3118 3122 3117 3107 3106 3109 3109 3109 3108 3107 3108 3108 3108 3109 3109 3109 3109 3109 3108
3107 3107 3107 3108 3109 3109 3110 3111 3111 3112 3112 3113 3114 3115 3116 3117 3118 3119 3121 3119 3111 3109 3112 3111 3112 3112 3112 3113 3114 3114 3115 3115 3116 3116 3116 3117 3117 3118 3118 3119 3120 3120 3120 3120 3120 3121 3120 3121 3122 3122 3122 3123 3124 3124 3124 3125 3124 3124 3124 3124 3124 3124 3123 3123 3122 3121 3121 3117 3111 3113 3118 3115 3106 3103 3105 3106 3105 3105 3105 3105 3105 3106 3107 3107 3108 3108 3107 3107
3102 3103 3104 3104 3104 3105 3106 3107 3108 3108 3109 3110 3111 3112 3113 3114 3115 3117 3118 3113 3108 3108 3109 3109 3110 3110 3110 3111 3111 3112 3113 3113 3114 3115 3115 3116 3116 3117 3117 3118 3118 3118 3119 3118 3118 3119 3119 3119 3120 3120 3120 3121 3121 3122 3122 3122 3122 3122 3122 3122 3123 3122 3121 3121 3119 3119 3121 3113 3106 3109 3112 3111 3107 3101 3101 3103 3103 3103 3103 3103 3104 3104 3105 3106 3106 3106 3106 3106
3098 3099 3100 3100 3100 3101 3102 3103 3105 3105 3105 3106 3107 3108 3110 3111 3112 3113 3110 3107 3106 3107 3106 3107 3107 3107 3108 3109 3109 3110 3111 3112 3113 3113 3114 3114 3115 3115 3116 3116 3117 3117 3117 3116 3116 3116 3116 3117 3117 3118 3119 3119 3119 3119 3119 3120 3119 3119 3120 3120 3121 3120 3119 3119 3117 3118 3118 3109 3103 3106 3107 3108 3106 3099 3099 3101 3101 3102 3102 3102 3102 3103 3104 3104 3105 3105 3105 3104
3093 3094 3095 3096 3096 3098 3099 3100 3102 3102 3102 3102 3104 3105 3107 3108 3107 3105 3104 3104 3105 3104 3103 3105 3105 3105 3106 3106 3107 3109 3110 3111 3111 3112 3113 3113 3113 3114 3114 3115 3115 3115 3115 3114 3114 3114 3113 3114 3115 3116 3116 3116 3117 3117 3116 3117 3117 3117 3117 3119 3120 3120 3119 3118 3116 3116 3113 3105 3103 3105 3105 3105 3101 3097 3099 3100 3099 3100 3100 3101 3102 3102 3103 3103 3103 3103 3103 3103
3087 3089 3090 3091 3092 3093 3095 3096 3097 3097 3098 3099 3101 3102 3103 3103 3099 3097 3100 3103 3102 3102 3102 3103 3103 3103 3104 3104 3105 3107 3108 3109 3109 3110 3111 3111 3111 3112 3113 3113 3113 3113 3113 3112 3113 3112 3111 3110 3111 3113 3112 3113 3113 3113 3113 3114 3114 3114 3114 3115 3117 3118 3120 3117 3114 3112 3108 3103 3103 3104 3104 3101 3096 3095 3097 3097 3097 3098 3099 3100 3100 3101 3101 3101 3101 3101 3101 3101
3083 3084 3085 3086 3088 3089 3090 3092 3092 3093 3095 3096 3097 3099 3099 3097 3093 3094 3097 3099 3100 3101 3101 3102 3102 3102 3102 3103 3104 3105 3106 3107 3107 3107 3108 3108 3109 3109 3110 3111 3111 3112 3112 3111 3111 3110 3109 3107 3107 3110 3109 3109 3110 3110 3111 3111 3111 3111 3111 3112 3112 3112 3114 3111 3108 3106 3104 3102 3102 3102 3101 3096 3093 3093 3094 3094 3096 3096 3097 3099 3099 3099 3099 3100 3100 3100 3099 3099
3079 3080 3081 3083 3084 3085 3086 3087 3087 3089 3091 3092 3094 3094 3092 3090 3090 3092 3094 3096 3098 3099 3100 3101 3100 3100 3101 3101 3102 3103 3104 3104 3104 3105 3105 3106 3106 3106 3107 3108 3110 3110 3110 3110 3109 3108 3107 3103 3104 3106 3106 3106 3107 3108 3109 3109 3108 3108 3108 3109 3107 3107 3108 3106 3104 3103 3102 3102 3100 3098 3095 3092 3091 3092 3092 3093 3094 3095 3096 3097 3097 3097 3097 3097 3097 3097 3097 3096
3075 3076 3077 3079 3080 3081 3082 3082 3083 3084 3086 3087 3089 3087 3084 3084 3088 3090 3091 3093 3095 3096 3097 3098 3098 3098 3099 3099 3100 3101 3102 3102 3102 3103 3103 3103 3103 3103 3103 3105 3106 3107 3107 3107 3107 3106 3104 3101 3101 3103 3103 3104 3105 3105 3106 3106 3105 3104 3104 3104 3104 3104 3105 3104 3103 3102 3102 3101 3096 3092 3090 3089 3090 3089 3089 3091 3093 3093 3094 3094 3095 3095 3094 3094 3094 3094 3094 3093
3071 3072 3073 3074 3076 3077 3077 3078 3079 3080 3081 3083 3082 3079 3079 3082 3085 3087 3088 3090 3092 3093 3094 3095 3095 3096 3095 3096 3096 3098 3099 3100 3100 3100 3100 3101 3100 3098 3100 3101 3102 3103 3104 3104 3104 3103 3101 3098 3098 3100 3100 3101 3102 3102 3103 3103 3102 3102 3101 3101 3102 3103 3103 3103 3102 3101 3101 3099 3093 3088 3088 3087 3087 3086 3085 3088 3090 3090 3091 3091 3091 3091 3091 3092 3091 3091 3091 3090
3067 3068 3069 3070 3071 3073 3073 3074 3075 3076 3077 3077 3075 3074 3076 3079 3082 3085 3086 3087 3089 3090 3091 3091 3092 3092 3092 3093 3094 3095 3097 3097 3097 3097 3098 3098 3097 3095 3097 3098 3098 3099 3100 3101 3101 3100 3100 3097 3095 3096 3097 3098 3099 3099 3099 3099 3099 3099 3099 3099 3100 3099 3099 3100 3100 3099 3099 3097 3091 3087 3086 3084 3084 3083 3083 3085 3087 3087 3087 3087 3088 3088 3089 3089 3088 3088 3088 3088
3063 3064 3065 3066 3067 3068 3068 3069 3071 3072 3073 3071 3069 3071 3073 3075 3078 3082 3083 3084 3085 3086 3087 3088 3089 3089 3089 3090 3091 3093 3094 3094 3095 3095 3095 3095 3094 3092 3094 3095 3095 3095 3096 3098 3097 3097 3098 3096 3093 3092 3093 3094 3095 3095 3095 3095 3096 3097 3097 3097 3097 3096 3096 3096 3096 3094 3094 3093 3090 3088 3085 3081 3080 3081 3082 3083 3084 3084 3084 3085 3085 3086 3086 3086 3085 3086 3086 3086
3058 3060 3060 3061 3062 3064 3065 3065 3066 3068 3067 3064 3065 3068 3069 3071 3074 3077 3079 3081 3082 3082 3083 3084 3086 3086 3086 3087 3088 3089 3091 3091 3091 3092 3092 3091 3090 3090 3090 3091 3091 3093 3094 3095 3095 3095 3096 3095 3091 3090 3090 3091 3091 3091 3091 3093 3094 3094 3094 3094 3093 3093 3093 3093 3091 3090 3090 3090 3089 3088 3083 3079 3079 3080 3080 3081 3082 3083 3083 3083 3083 3083 3083 3083 3083 3083 3084 3084
3054 3056 3056 3057 3057 3058 3060 3061 3061 3062 3062 3061 3062 3064 3066 3068 3070 3073 3076 3078 3079 3079 3080 3081 3082 3082 3082 3083 3084 3085 3086 3086 3087 3088 3087 3087 3087 3087 3087 3087 3088 3090 3091 3092 3092 3092 3092 3092 3090 3088 3087 3087 3087 3088 3089 3090 3090 3091 3091 3091 3090 3090 3090 3090 3088 3086 3087 3086 3085 3085 3081 3077 3078 3078 3077 3079 3080 3081 3082 3082 3081 3081 3081 3081 3082 3082 3081 3081
3048 3050 3051 3053 3053 3053 3055 3056 3056 3057 3057 3057 3059 3061 3063 3066 3067 3070 3073 3075 3075 3076 3077 3077 3077 3077 3078 3079 3080 3081 3082 3082 3082 3083 3083 3082 3084 3084 3084 3085 3086 3087 3088 3088 3088 3089 3089 3089 3087 3086 3085 3085 3085 3085 3086 3087 3087 3087 3087 3087 3088 3087 3086 3086 3084 3083 3083 3083 3082 3082 3079 3076 3076 3076 3075 3077 3078 3078 3080 3080 3079 3079 3079 3079 3079 3079 3078 3078
3044 3045 3046 3047 3049 3050 3051 3052 3053 3054 3053 3054 3057 3059 3062 3063 3064 3066 3068 3070 3071 3072 3073 3072 3073 3073 3074 3075 3076 3076 3077 3078 3077 3078 3078 3079 3079 3080 3080 3081 3082 3083 3084 3084 3085 3085 3086 3085 3084 3083 3083 3083 3083 3082 3083 3084 3085 3084 3084 3084 3084 3084 3083 3083 3081 3080 3080 3079 3079 3080 3077 3073 3074 3074 3074 3074 3075 3076 3077 3077 3077 3076 3076 3076 3076 3075 3075 3074
3040 3042 3043 3044 3045 3047 3047 3048 3050 3051 3053 3055 3056 3057 3059 3060 3060 3061 3063 3065 3066 3067 3067 3068 3069 3069 3070 3071 3072 3072 3073 3074 3073 3073 3074 3074 3075 3075 3076 3078 3079 3080 3080 3080 3081 3081 3081 3081 3081 3081 3081 3080 3079 3078 3079 3081 3081 3081 3080 3081 3081 3081 3081 3079 3078 3078 3077 3075 3077 3077 3072 3069 3071 3072 3072 3072 3072 3073 3074 3074 3074 3073 3073 3072 3072 3072 3071 3070
3036 3038 3039 3040 3041 3042 3043 3045 3048 3050 3051 3052 3052 3054 3055 3056 3056 3057 3058 3060 3061 3062 3063 3064 3064 3065 3066 3066 3067 3068 3069 3069 3069 3069 3069 3069 3070 3071 3072 3074 3075 3075 3076 3077 3077 3077 3077 3077 3077 3077 3077 3076 3074 3074 3075 3077 3078 3078 3077 3077 3077 3077 3077 3075 3075 3075 3073 3072 3073 3072 3067 3067 3069 3070 3069 3070 3070 3071 3071 3071 3070 3069 3069 3068 3068 3068 3067 3066
3033 3033 3034 3036 3037 3038 3039 3042 3044 3045 3046 3048 3048 3049 3050 3050 3051 3052 3053 3054 3056 3057 3058 3058 3059 3060 3061 3061 3062 3063 3063 3064 3065 3065 3064 3065 3067 3068 3069 3070 3071 3072 3072 3072 3073 3073 3073 3072 3072 3072 3071 3070 3070 3071 3072 3073 3074 3074 3074 3074 3075 3074 3073 3072 3072 3071 3071 3071 3069 3066 3065 3066 3067 3067 3067 3067 3068 3068 3068 3068 3066 3065 3064 3064 3063 3062 3061 3060
3028 3029 3030 3032 3033 3034 3034 3036 3038 3040 3042 3043 3044 3044 3044 3045 3047 3048 3048 3049 3050 3052 3053 3053 3054 3054 3054 3056 3057 3058 3059 3060 3060 3060 3061 3062 3063 3064 3065 3066 3066 3067 3068 3068 3069 3069 3068 3067 3068 3068 3067 3067 3068 3068 3068 3069 3069 3070 3070 3070 3071 3071 3070 3068 3067 3067 3069 3067 3063 3063 3065 3064 3063 3064 3064 3064 3065 3065 3064 3063 3062 3061 3060 3059 3058 3057 3056 3055
3024 3024 3026 3028 3029 3028 3029 3031 3034 3036 3038 3039 3039 3039 3040 3040 3042 3043 3044 3045 3046 3048 3048 3047 3047 3048 3049 3052 3054 3054 3054 3055 3055 3056 3057 3058 3059 3060 3061 3061 3061 3062 3063 3064 3064 3065 3064 3063 3063 3064 3064 3064 3065 3065 3065 3065 3065 3065 3065 3064 3064 3065 3065 3063 3063 3064 3065 3061 3058 3059 3062 3060 3059 3060 3061 3060 3060 3059 3059 3059 3058 3057 3056 3055 3054 3053 3051 3050
3020 3020 3022 3023 3023 3024 3025 3028 3031 3032 3033 3034 3034 3035 3035 3035 3036 3038 3040 3041 3041 3042 3042 3041 3041 3043 3045 3047 3049 3049 3049 3050 3050 3051 3053 3055 3056 3056 3056 3057 3057 3058 3059 3059 3060 3061 3061 3059 3060 3060 3060 3061 3062 3061 3061 3061 3060 3060 3060 3059 3058 3058 3058 3058 3058 3058 3058 3055 3054 3056 3056 3054 3054 3055 3055 3056 3055 3053 3053 3053 3052 3051 3051 3050 3049 3048 3047 3046
3015 3016 3018 3019 3019 3020 3022 3024 3026 3026 3028 3030 3029 3029 3030 3030 3032 3034 3035 3036 3036 3036 3037 3037 3038 3040 3041 3042 3043 3042 3043 3045 3046 3048 3051 3051 3052 3052 3052 3053 3053 3054 3055 3055 3056 3057 3057 3056 3056 3056 3056 3057 3057 3057 3058 3057 3056 3056 3054 3053 3052 3051 3051 3052 3051 3051 3051 3050 3050 3051 3050 3047 3049 3050 3050 3051 3050 3047 3047 3047 3047 3046 3046 3045 3044 3043 3042 3041
3011 3012 3014 3015 3015 3016 3018 3019 3021 3021 3023 3023 3022 3023 3025 3026 3028 3030 3030 3030 3031 3031 3032 3033 3035 3037 3038 3038 3038 3037 3040 3043 3044 3045 3047 3047 3047 3049 3049 3049 3050 3050 3051 3052 3052 3053 3053 3053 3053 3054 3053 3052 3052 3053 3054 3053 3053 3051 3047 3045 3046 3046 3046 3045 3045 3046 3045 3044 3044 3046 3044 3041 3045 3046 3045 3044 3044 3042 3042 3042 3042 3041 3040 3040 3039 3038 3037 3037
3007 3008 3009 3010 3010 3011 3012 3014 3015 3015 3015 3016 3017 3019 3021 3022 3024 3026 3025 3025 3027 3027 3028 3029 3031 3032 3033 3033 3033 3035 3038 3040 3040 3042 3043 3043 3043 3044 3045 3045 3045 3046 3047 3048 3048 3048 3049 3049 3050 3051 3050 3049 3049 3050 3050 3052 3051 3044 3038 3038 3041 3042 3041 3040 3041 3040 3040 3040 3040 3039 3037 3038 3040 3041 3039 3038 3039 3038 3037 3036 3036 3036 3036 3035 3034 3033 3033 3032